W1LP-13 Weather Reports


time (UTC)temp
F
wind
direction
speed
knots
gust
knots
rain 1hr
in
rain 24hr
in
rain mn
in
humidity
%
barometer
mb
20260507060030 52 204 1.7 7.0 0.00 0.11 0.00 97 1003.4
20260507054527 53 156 2.6 7.0 0.00 0.11 0.00 97 1003.8
20260507053026 53 188 3.5 8.7 0.00 0.11 0.00 97 1004.0
20260507051525 53 227 4.3 13.0 0.00 0.11 0.00 97 1004.1
20260507050026 53 199 2.6 9.6 0.00 0.11 0.00 97 1004.3
20260507044519 53 199 3.5 9.6 0.00 0.11 0.00 97 1004.2
20260507043018 53 219 3.5 11.3 0.00 0.11 0.00 97 1004.3
20260507041515 53 211 4.3 12.2 0.00 0.11 0.00 97 1004.5
20260507040013 54 213 3.5 12.2 0.00 0.11 0.11 97 1004.6
20260507034508 54 225 5.2 12.2 0.00 0.11 0.11 97 1004.7
20260507033016 55 205 3.5 8.7 0.00 0.11 0.11 97 1004.6
20260507031507 55 205 3.5 12.2 0.00 0.11 0.11 97 1004.5
20260507030007 55 188 5.2 9.6 0.00 0.11 0.11 97 1004.2
20260507024503 55 185 4.3 12.2 0.00 0.11 0.11 97 1004.5
20260507023107 55 195 5.2 13.0 0.00 0.11 0.11 97 1004.9
20260507021602 56 186 4.3 10.4 0.00 0.11 0.11 96 1004.9
20260507020100 56 205 5.2 8.7 0.00 0.11 0.11 96 1005.1
20260507014603 57 194 6.1 18.2 0.00 0.11 0.11 96 1005.1
20260507013054 57 360 5.2 14.8 0.01 0.11 0.11 97 1005.3
20260507011553 57 174 4.3 13.0 0.01 0.11 0.11 97 1005.2
20260507010057 58 212 3.5 13.0 0.02 0.11 0.11 97 1005.2
20260507004552 57 229 4.3 7.8 0.03 0.11 0.11 97 1005.2
20260507003052 57 169 5.2 9.6 0.05 0.10 0.10 97 1005.1
20260507001554 57 160 3.5 7.8 0.07 0.10 0.10 97 1005.1
20260507000049 56 360 3.5 8.7 0.08 0.09 0.09 96 1005.0
20260506234549 56 360 3.5 8.7 0.07 0.07 0.07 95 1004.9
20260506233055 57 188 3.5 16.5 0.05 0.05 0.05 95 1005.0
20260506231543 57 194 4.3 11.3 0.03 0.03 0.03 94 1005.4
20260506230040 58 175 3.5 9.6 0.01 0.01 0.01 93 1005.7
20260506224539 58 213 4.3 15.6 0.00 0.00 0.00 91 1005.7
20260506223038 59 360 5.2 12.2 0.00 0.00 0.00 88 1005.7
20260506221538 61 187 4.3 13.9 0.00 0.00 0.00 84 1005.7
20260506220038 61 175 4.3 10.4 0.00 0.00 0.00 82 1005.4
20260506214536 61 360 3.5 13.0 0.00 0.00 0.00 82 1005.7
20260506213035 61 180 3.5 17.4 0.00 0.00 0.00 82 1006.0
20260506211535 61 188 7.0 15.6 0.00 0.00 0.00 81 1006.1
20260506210033 62 184 4.3 9.6 0.00 0.00 0.00 80 1006.0
20260506204531 62 360 4.3 11.3 0.00 0.00 0.00 79 1006.1
20260506203030 62 171 5.2 13.9 0.00 0.00 0.00 79 1006.4
20260506201531 63 175 3.5 13.0 0.00 0.00 0.00 78 1006.4
20260506200029 62 159 4.3 18.2 0.00 0.00 0.00 78 1006.6
20260506194527 62 190 5.2 10.4 0.00 0.00 0.00 78 1006.9
20260506193028 62 174 4.3 15.6 0.00 0.00 0.00 78 1007.0
20260506191526 63 172 3.5 18.2 0.00 0.00 0.00 77 1007.1
20260506190025 64 203 5.2 14.8 0.00 0.00 0.00 76 1007.1
20260506184523 64 193 6.1 16.5 0.00 0.00 0.00 74 1007.3
20260506183022 64 360 6.1 19.1 0.00 0.00 0.00 75 1007.5
20260506181521 65 203 5.2 24.3 0.00 0.00 0.00 74 1007.8
20260506180019 67 163 6.1 12.2 0.00 0.00 0.00 70 1008.3
20260506174517 69 188 5.2 10.4 0.00 0.00 0.00 70 1008.2
20260506173016 67 175 7.0 19.1 0.00 0.00 0.00 71 1008.1
20260506171513 66 200 5.2 15.6 0.00 0.00 0.00 73 1008.4
20260506170011 66 360 5.2 15.6 0.00 0.00 0.00 73 1008.5
20260506164510 66 211 4.3 20.0 0.00 0.00 0.00 74 1008.8
20260506163021 67 190 6.1 15.6 0.00 0.00 0.00 72 1009.0
20260506161508 67 140 6.1 22.6 0.00 0.00 0.00 72 1009.0
20260506160015 66 186 7.0 18.2 0.00 0.00 0.00 73 1009.2
20260506154504 67 155 7.8 20.0 0.00 0.00 0.00 71 1009.7
20260506153003 67 170 7.8 17.4 0.00 0.00 0.00 72 1009.6
20260506151503 67 189 5.2 16.5 0.00 0.00 0.00 71 1009.7
20260506150002 65 243 7.0 16.5 0.00 0.00 0.00 74 1009.7
20260506144600 66 176 6.1 14.8 0.00 0.00 0.00 74 1009.8
20260506143108 66 157 3.5 12.2 0.00 0.00 0.00 73 1009.4
20260506141559 67 209 5.2 19.1 0.00 0.00 0.00 73 1009.7
20260506140100 68 360 6.1 15.6 0.00 0.00 0.00 71 1009.8
20260506134555 66 213 8.7 25.2 0.00 0.00 0.00 73 1009.7
20260506133053 66 200 6.1 23.5 0.00 0.00 0.00 75 1009.6
20260506131551 66 199 6.1 15.6 0.00 0.00 0.00 75 1009.7
20260506130049 65 360 5.2 10.4 0.00 0.00 0.00 77 1009.7
20260506124546 64 170 5.2 10.4 0.00 0.00 0.00 78 1009.9
20260506123043 63 220 4.3 13.9 0.00 0.00 0.00 80 1009.9
20260506121543 62 178 4.3 13.0 0.00 0.00 0.00 81 1010.1
20260506120037 61 194 3.5 9.6 0.00 0.00 0.00 83 1010.2
20260506114543 61 229 4.3 17.4 0.00 0.00 0.00 84 1010.4
20260506113036 61 192 6.1 16.5 0.00 0.00 0.00 83 1010.3
20260506111538 61 190 6.1 15.6 0.00 0.00 0.00 84 1010.2
20260506110033 60 207 5.2 13.0 0.00 0.00 0.00 86 1010.4
20260506104528 59 224 6.1 9.6 0.00 0.00 0.00 87 1010.3
20260506103027 58 186 4.3 10.4 0.00 0.00 0.00 88 1010.2
20260506101526 58 155 4.3 8.7 0.00 0.00 0.00 88 1010.2
20260506100021 58 225 4.3 11.3 0.00 0.00 0.00 89 1010.2
20260506094519 57 174 4.3 13.9 0.00 0.00 0.00 90 1010.2
20260506093019 57 191 4.3 14.8 0.00 0.00 0.00 90 1010.4
20260506091522 57 211 3.5 14.8 0.00 0.00 0.00 90 1010.3
20260506090022 57 231 4.3 12.2 0.00 0.00 0.00 91 1010.3
20260506084517 57 188 4.3 14.8 0.00 0.00 0.00 91 1010.4
20260506083015 57 205 4.3 21.7 0.00 0.00 0.00 91 1010.4
20260506081515 57 207 6.1 13.9 0.00 0.00 0.00 91 1010.3
20260506073011 57 210 5.2 13.0 0.00 0.00 0.00 91 1010.4
20260506071509 57 360 5.2 15.6 0.00 0.00 0.00 91 1010.4
20260506061513 57 199 4.3 10.4 0.00 0.00 0.00 89 1010.4